Regional Weather Roundup
Issued by NWS Sioux Falls, SD

Home | Current Version | Previous Version | Graphics & Text | Print | Product List | Glossary Off
Versions: 1 2 3 4 5 6 7 8 9 10 11 12 13 14 15 16 17 18 19 20 21 22 23 24 25 26 27 28 29 30 31 32 33 34 35 36 37 38 39 40 41 42 43 44 45 46 47 48 49 50

000
ASUS43 KFSD 280502
RWRFSD

WEATHER ROUNDUP FOR SE SOUTH DAKOTA/SW MINNESOTA/NW IOWA
NATIONAL WEATHER SERVICE SIOUX FALLS SD
1200 AM CDT SAT MAR 28 2015

NOTE: "FAIR" INDICATES FEW OR NO CLOUDS BELOW 12,000 FEET WITH NO
SIGNIFICANT WEATHER AND OR OBSTRUCTIONS TO VISIBILITY.


SDZ038>040-050-052>070-280600-
SOUTHEAST SOUTH DAKOTA

CITY           SKY/WX    TMP DP  RH WIND       PRES   REMARKS
CHAMBERLAIN    NOT AVBL
HURON          MOCLDY    32  27  81 SE12      30.03F WCI  23
MADISON        CLOUDY    30  25  80 SE13      30.05S WCI  20
MITCHELL       PTCLDY    30  26  85 SE10      30.05R WCI  21
SIOUX FALLS    CLOUDY    31  24  75 E13       30.08S WCI  21
WINNER         CLOUDY    35  29  78 SE9       29.96R WCI  28
YANKTON        CLOUDY    34  25  69 E8        30.07R WCI  27
$$

MNZ071-072-080-081-089-090-097-098-280600-
SOUTHWEST MINNESOTA

CITY           SKY/WX    TMP DP  RH WIND       PRES   REMARKS
FAIRMONT       CLOUDY    30  19  64 S5        30.13S WCI  25
JACKSON        LGT SNOW  30  27  86 W5        30.13R WCI  25
LUVERNE        MIX PCPN  30  28  93 SE9       30.11S WCI  22
MARSHALL       CLOUDY    28  23  80 S7        30.13F WCI  21
MONTEVIDEO     CLOUDY    28  25  86 S3        30.14S
PIPESTONE      MIX PCPN  28  25  86 SE8       30.08S WCI  20
REDWOOD FALLS  CLOUDY    31  22  69 CALM      30.14S
TRACY          FLURRIES  28  27  93 S5        30.12F WCI  23
WINDOM         LGT SNOW  28  27  93 CALM      30.13S
WORTHINGTON    CLOUDY    27  23  86 E6        30.12S WCI  20
$$

IAZ001>003-012>014-020>022-031-032-NEZ013-014-SDZ071-280600-
NORTHWEST IOWA

CITY           SKY/WX    TMP DP  RH WIND       PRES   REMARKS
DENISON        CLOUDY    30  28  93 SE7       30.10S WCI  23
ESTHERVILLE    CLOUDY    31  21  66 SW5       30.12S WCI  26
SIOUX CITY     CLOUDY    34  24  67 SE9       30.09R WCI  27
SPENCER        LGT SNOW  29  25  85 SE5       30.14R FOG     WCI  24
$$

ABBREVIATIONS USED IN REMARKS
   TC - TEMPERATURE IN CELSIUS
  WCI - WIND CHILL INDEX
   HX - HEAT INDEX
  VSB - VISIBILITY



USA.gov is the U.S. government's official web portal to all federal, state and local government web resources and services.